Other Public Products
Issued by NWS Grand Forks, ND

Home | Current Version | Previous Version | Text Only | Print | Product List | Glossary On
Versions: 1 2 3 4 5 6 7 8 9 10 11 12 13 14 15 16 17 18 19 20 21 22 23 24 25 26 27 28 29 30 31 32 33 34 35 36 37 38 39 40 41 42 43 44 45 46 47 48 49 50
000
FPUS83 KFGF 270310
OPUFGF
PRAIRIE TO PINES WEATHER ROUNDUP
NATIONAL WEATHER SERVICE EASTERN NORTH DAKOTA/GRAND FORKS ND
1000 PM CDT WED JUN 26 2019

 **SATELLITE DATA USED TO AUGMENT SKY COVER AT AUTOMATED STATIONS**
 *****  WEATHER ACROSS EASTERN NORTH DAKOTA  *****

CITY           SKY/WX    TMP DP  RH WIND       PRES   REMARKS
GRAND FORKS    CLEAR     72  51  47 CALM      29.96R
GRND FORKS AFB FAIR      67  55  64 CALM      29.98R
GRND FORKS NWS   N/A     71  51  48 MISG      29.93R
BUXTON         NOT AVBL
DEVILS LAKE    FAIR      72  58  61 E3        30.00R
FARGO          FAIR      78  58  49 SE6       29.97R
WAHPETON ARPT  FAIR      73  61  64 NE5       29.98R
$$

 *****  WEATHER ACROSS CENTRAL AND WESTERN NORTH DAKOTA  *****

CITY           SKY/WX    TMP DP  RH WIND       PRES   REMARKS
JAMESTOWN      FAIR      73  60  63 SE6       29.98R
BISMARCK       FAIR      75  60  59 E8        29.97R
MINOT          FAIR      74  52  46 SE7       29.95R
MINOT AFB      FAIR      70  57  63 E3        29.94R
GARRISON         N/A     69  57  65 E7        29.96R
WILLISTON      FAIR      74  51  44 E8        29.96R
DICKINSON      FAIR      69  59  70 E6        29.97R
HETTINGER      FAIR      70  61  73 E9        29.98R
$$

 *****  OTHER OBSERVATIONS NORTHEAST NORTH DAKOTA  *****

CITY           SKY/WX    TMP DP  RH WIND       PRES   REMARKS
WALHALLA       FAIR      72  61  68 CALM      29.97R
LANGDON        FAIR     N/A N/A N/A E5        30.01R
CAVALIER       FAIR      70  61  73 CALM      29.97R
GRAFTON        FAIR      73  55  53 E3        29.99R
CANDO          FAIR      68  55  64 SE3       30.00R
FORT TOTTEN      N/A     72  50  46 SE3       29.95S
ROLLA          FAIR      68  63  83 CALM      30.01R
RUGBY          FAIR      70  59  68 SE3       29.97R
 ***** THE ABOVE OBSERVATIONS ARE NON NWS ARE NOT QUALITY
        CONTROLLED AND MAY MIS-REPORT RAIN FOR SNOW...
$$

 *****  OTHER OBSERVATIONS SOUTHEAST NORTH DAKOTA *****

CITY           SKY/WX    TMP DP  RH WIND       PRES   REMARKS
COOPERSTOWN    FAIR      72  64  78 E6        30.00R
VALLEY CITY    FAIR      72  61  68 E5        30.01R
OAKES          FAIR      73  66  78 NE7       29.99R
GWINNER        PTCLDY    75  66  73 NE3       29.98R
SHEYENNE NWR     N/A     73  63  71 NE3       29.95S
BUFFALO        NOT AVBL
WYNDMERE       NOT AVBL
 ***** THE ABOVE OBSERVATIONS ARE NON NWS ARE NOT QUALITY
       CONTROLLED AND MAY MIS-REPORT RAIN FOR SNOW...
$$

  *****  WEATHER ACROSS NORTHERN MINNESOTA  *****

CITY           SKY/WX    TMP DP  RH WIND       PRES   REMARKS
FLAG ISLAND      N/A     72  57  60 W3        29.96R
WARROAD        FAIR      68  59  73 SW6       29.99R
ROSEAU         FAIR      73  57  56 W3          N/A
HALLOCK        FAIR      70  57  64 CALM      29.97R
THF RVR FALLS  FAIR      69  54  58 CALM      30.01R
HALSTAD        NOT AVBL
FOSSTON        FAIR      63  57  82 CALM      30.02R
BAUDETTE       FAIR      66  58  75 CALM      29.98R
WASKISH        FAIR      64  59  82 CALM      30.00R
CROOKSTON      FAIR      75  48  38 N5        29.98R
$$
  *****  WEATHER ACROSS CENTRAL AND WEST MINNESOTA  *****

CITY           SKY/WX    TMP DP  RH WIND       PRES   REMARKS
BEMIDJI        FAIR      65  54  68 CALM      30.02R
PARK RAPIDS    FAIR      73  56  54 CALM      30.02R
WADENA         FAIR      68  61  77 CALM      30.02R
DETROIT LAKES  FAIR      72  57  60 CALM      30.03R
MOORHEAD       FAIR      75  61  60 SE3       29.99R
FERGUS FALLS   FAIR      77  61  57 E3        29.99R
ELBOW LAKE     NOT AVBL
MORRIS MN      FAIR      73  63  68 E7        29.94R
STAPLES        FAIR      70  61  73 CALM      30.02R
WHEATON        FAIR      75  63  64 CALM      29.99R
$$
  *****  WEATHER ELSEWHERE ACROSS MINNESOTA  *****

CITY           SKY/WX    TMP DP  RH WIND       PRES   REMARKS
DULUTH         FAIR      70  57  63 NW3       30.02R
INTRNTL FALLS  FAIR      59  55  87 CALM      29.98R
ELY            FAIR      63  50  63 CALM      30.00R
CLOQUET        FAIR      66  54  63 CALM      30.02R
BRAINERD       FAIR      74  59  59 CALM      30.02R
HIBBING        FAIR      60  56  86 CALM      30.01R
ALEXANDRIA     FAIR      73  61  65 NE5       30.03R
SAINT CLOUD    FAIR      71  59  65 SE3       30.02R
MINNEAPOLIS    FAIR      77  55  46 SE6       30.03R
$$

  *****  WEATHER ACROSS SOUTH DAKOTA  *****

CITY           SKY/WX    TMP DP  RH WIND       PRES   REMARKS
SIOUX FALLS    FAIR      80  61  52 S10       29.99R
BROOKINGS      FAIR      77  65  66 S5        30.00R
WATERTOWN      FAIR      78  65  63 CALM      29.98S
HURON          FAIR      77  67  71 SE8       29.94R
SISSETON         N/A     75  65  70 E5        29.97R
ABERDEEN       FAIR      75  65  70 E6        29.97R
MITCHELL       FAIR      75  67  76 SE8       29.96R
PIERRE         FAIR      76  67  73 E7        29.90R
MOBRIDGE       FAIR      76  64  66 E14G21    29.91F
RAPID CITY     FAIR      71  67  87 NE10      29.90F
$$

  *****  SOME WEATHER IN NEARBY STATES *****

CITY           SKY/WX    TMP DP  RH WIND       PRES   REMARKS
GLASGOW MT     FAIR      74  54  49 E13       29.93R
GREAT FALLS MT FAIR      59  52  77 E16       29.93S
CHEYENNE WY    FAIR      71  44  37 SE3       30.12
SCOTTSBLUFF NE FAIR      69  56  62 NE14      29.96S
OMAHA NE       FAIR      79  68  69 SE10      30.02R
DES MOINES IA  FAIR      77  67  71 SE6       30.05R
DAVENPORT IA   FAIR      78  68  71 S7        30.10R
CHICAGO IL     CLOUDY    72  65  78 SE3       30.09R
EAU CLAIRE WI  FAIR      70  56  61 S3        30.05R
LA CROSSE WI   FAIR      73  61  65 E5        30.07R
$$

  *****  SOME NATIONAL WEATHER *****

CITY           SKY/WX    TMP DP  RH WIND       PRES   REMARKS
LA GUARDIA NY  FAIR      80  65  59 NE8       30.02S
RALEIGH NC     CLOUDY    73  65  75 CALM      30.13R
ATLANTA GA     CLOUDY    75  68  78 NW3       30.19R
NEW ORLEANS LA CLOUDY    82  73  74 CALM      30.15R
OKLAHOMA CITY  FAIR      78  71  79 S8        30.10R
ALBUQUERQUE NM MOCLDY    83  38  20 E10       30.14R
SALT LAKE CITY MOCLDY    85  35  16 S12       29.85R
LOS ANGELES CA FAIR      64  58  80 W16       29.96R
BOISE ID       FAIR      82  32  16 W9        29.73R
SEATTLE WA     MOCLDY    63  52  67 NW7       29.88S
$$

*** WEATHER ACROSS MANITOBA...SASKATCHEWAN AND ONTARIO ***
                ***ONTARIO***

CITY           SKY/WX    TMP DP  RH WIND       PRES   REMARKS
GERALDTON      MOCLDY    68  54  60 W5        29.88R
THUNDER BAY    PTCLDY    70  59  68 VRB2      29.93R
SIOUX LOOKOUT  PTCLDY    59  55  88 W3        29.93R
TORONTO        CLEAR     73  55  53 VRB2      30.06R
BIG TROUT LK   CLOUDY    52  52 100 NW6       29.84S
PICKLE LAKE    NOT AVBL
DRYDEN         CLEAR     66  54  63 SW3       29.96R
KENORA         PTCLDY    72  50  46 NW6       29.98R
$$
                *** MANITOBA***

CITY           SKY/WX    TMP DP  RH WIND       PRES   REMARKS
BRANDON        PTCLDY    66  55  68 N3        29.98R
DAUPHIN        CLEAR     64  55  72 SE3       29.97R
ISLAND LAKE    MOCLDY    61  52  72 N5        29.93R
PILOT MOUND    NOT AVBL
THE PAS        CLEAR     64  52  63 E2        29.95R
THOMPSON       PTCLDY    55  52  88 NE3       29.96R
WINNIPEG       PTCLDY    68  52  56 NW3       29.96R
LYNN LAKE      CLOUDY    54  54 100 E5        29.98R
CHURCHILL      MOCLDY    39  36  87 NE8       30.04S
GILLAM         CLOUDY    55  46  71 NE7       29.96R
$$
                ***SASKATCHEWAN***

CITY           SKY/WX    TMP DP  RH WIND       PRES   REMARKS
ESTEVAN        CLEAR     64  52  63 NE9       29.99R
KINDERSLEY     PTCLDY    68  50  52 NE9       29.96R
LLOYDMINSTER   LGT RAIN  57  52  82 SW3       29.99F
PRINCE ALBERT  MOCLDY    63  55  77 CALM      29.99R
REGINA         MOCLDY    68  52  56 N3        29.99R
YORKTON        CLEAR     66  54  63 NW5       29.98R


USA.gov is the U.S. government's official web portal to all federal, state and local government web resources and services.